Location: Fouquenies
(49.4624°N, 2.0492°E)
Time: 11:32:07
(UTC+00:00)

FO-29 - Visible Passes

Search period start: 30 November 2023 00:00
Search period end: 10 December 2023 00:00
Orbit: 800 x 1321 km, 98.6° (Epoch: 29 November)

Date Brightness Start Highest point End Pass type
(mag) Time Alt. Az. Time Alt. Az. Time Alt. Az.
30 Nov 12.3 01:29:04 10° NE 01:30:11 14° NE 01:30:11 14° NE visible
30 Nov 11.1 03:13:11 10° NNE 03:16:39 33° NNE 03:16:39 33° NNE visible
30 Nov 11.1 04:59:12 10° N 05:03:08 23° NW 05:03:08 23° NW visible
01 Dec 11.8 02:18:12 10° NNE 02:20:47 23° NE 02:20:47 23° NE visible
01 Dec 10.9 04:03:23 10° N 04:07:15 32° NNW 04:07:15 32° NNW visible
01 Dec 11.5 05:50:31 10° NNW 05:53:43 14° NW 05:53:43 14° NW visible
02 Dec 12.4 01:24:01 10° NE 01:24:54 13° NE 01:24:54 13° NE visible
02 Dec 11.2 03:08:01 10° NNE 03:11:22 31° NNE 03:11:22 31° NNE visible
02 Dec 11.1 04:53:56 10° N 04:57:50 24° NNW 04:57:50 24° NNW visible
03 Dec 11.9 02:13:05 10° NNE 02:15:30 22° NE 02:15:30 22° NE visible
03 Dec 11.0 03:58:11 10° N 04:01:58 32° N 04:01:58 32° N visible
03 Dec 11.5 05:45:07 10° NNW 05:48:26 15° NW 05:48:26 15° NW visible
04 Dec 12.5 01:18:59 10° NE 01:19:37 12° NE 01:19:37 12° NE visible
04 Dec 11.3 03:02:52 10° NNE 03:06:06 30° NNE 03:06:06 30° NNE visible
04 Dec 11.1 04:48:42 10° N 04:52:34 24° NNW 04:52:34 24° NNW visible
05 Dec 11.9 02:07:59 10° NNE 02:10:13 20° NE 02:10:13 20° NE visible
05 Dec 11.1 03:53:00 10° N 03:56:42 31° N 03:56:42 31° N visible
05 Dec 11.4 05:39:46 10° NNW 05:43:10 16° NW 05:43:10 16° NW visible
06 Dec 12.5 01:13:59 10° NE 01:14:21 11° NE 01:14:21 11° NE visible
06 Dec 11.4 02:57:43 10° NNE 03:00:49 28° NNE 03:00:49 28° NNE visible
06 Dec 11.2 04:43:29 10° N 04:47:18 25° NNW 04:47:18 25° NNW visible
07 Dec 12.0 02:02:53 10° NNE 02:04:58 19° NE 02:04:58 19° NE visible
07 Dec 11.1 03:47:51 10° N 03:51:26 31° N 03:51:26 31° N visible
07 Dec 11.4 05:34:27 10° N 05:37:54 16° NW 05:37:54 16° NW visible
08 Dec 12.6 01:09:00 10° NE 01:09:06 10° NE 01:09:06 10° NE visible
08 Dec 11.5 02:52:35 10° NNE 02:55:34 27° NNE 02:55:34 27° NNE visible
08 Dec 11.2 04:38:17 10° N 04:42:02 25° NNW 04:42:02 25° NNW visible
09 Dec 12.1 01:57:49 10° NNE 01:59:43 18° NE 01:59:43 18° NE visible
09 Dec 11.2 03:42:42 10° N 03:46:11 30° N 03:46:11 30° N visible
09 Dec 11.4 05:29:10 10° N 05:32:39 17° NW 05:32:39 17° NW visible
